| time (UTC) | temp C | wind direction | speed KPH | gust KPH | rain 1hr cm | rain 24hr cm | rain mn cm | humidity % | barometer mb |
| 20260510190032 | 26 | 173 | 0.0 | 3.2 | 0.00 | 0.33 | 0.00 | 88 | 1012.4 |
| 20260510184518 | 25 | 355 | 0.0 | 6.4 | 0.00 | 0.46 | 0.00 | 88 | 1012.4 |
| 20260510183017 | 26 | 141 | 0.0 | 1.6 | 0.00 | 0.46 | 0.00 | 88 | 1012.7 |
| 20260510181536 | 25 | 346 | 0.0 | 3.2 | 0.00 | 0.46 | 0.00 | 88 | 1012.9 |
| 20260510180027 | 25 | 345 | 0.0 | 1.6 | 0.00 | 0.46 | 0.00 | 88 | 1013.2 |
| 20260510174514 | 26 | 226 | 0.0 | 1.6 | 0.00 | 1.12 | 0.00 | 88 | 1013.5 |
| 20260510173019 | 26 | 208 | 0.0 | 1.6 | 0.00 | 1.12 | 0.00 | 88 | 1013.3 |
| 20260510171510 | 25 | 255 | 0.0 | 1.6 | 0.00 | 1.12 | 0.00 | 88 | 1013.6 |
| 20260510170009 | 25 | 288 | 0.0 | 4.8 | 0.00 | 1.12 | 0.00 | 88 | 1013.7 |
| 20260510164508 | 25 | 274 | 0.0 | 4.8 | 0.00 | 1.57 | 0.00 | 88 | 1013.7 |
| 20260510163012 | 25 | 238 | 0.0 | 1.6 | 0.00 | 1.57 | 0.00 | 88 | 1013.7 |
| 20260510161512 | 25 | 215 | 0.0 | 3.2 | 0.00 | 1.57 | 0.00 | 88 | 1013.9 |
| 20260510160006 | 24 | 234 | 0.0 | 1.6 | 0.00 | 1.57 | 0.00 | 88 | 1013.6 |
| 20260510154502 | 24 | 319 | 0.0 | 1.6 | 0.00 | 2.03 | 0.00 | 88 | 1013.5 |
| 20260510153101 | 23 | 200 | 0.0 | 3.2 | 0.00 | 2.03 | 0.00 | 88 | 1013.6 |
| 20260510151608 | 23 | 300 | 0.0 | 4.8 | 0.00 | 2.03 | 0.00 | 89 | 1013.7 |
| 20260510144557 | 23 | 224 | 0.0 | 1.6 | 0.00 | 2.11 | 0.00 | 89 | 1014.0 |
| 20260510143053 | 23 | 217 | 0.0 | 1.6 | 0.00 | 2.11 | 0.00 | 89 | 1013.7 |
| 20260510141550 | 22 | 254 | 0.0 | 1.6 | 0.00 | 2.11 | 0.00 | 89 | 1013.6 |
| 20260510140045 | 22 | 139 | 0.0 | 1.6 | 0.00 | 2.11 | 0.00 | 89 | 1013.5 |
| 20260510134551 | 21 | 326 | 0.0 | 1.6 | 0.00 | 4.04 | 0.00 | 89 | 1013.7 |
| 20260510133038 | 21 | 274 | 0.0 | 0.0 | 0.00 | 4.04 | 0.00 | 89 | 1013.5 |
| 20260510131535 | 20 | 274 | 0.0 | 1.6 | 0.00 | 4.04 | 0.00 | 89 | 1013.3 |
| 20260510130032 | 20 | 224 | 0.0 | 1.6 | 0.00 | 4.04 | 0.00 | 89 | 1013.1 |
| 20260510124529 | 20 | 261 | 0.0 | 1.6 | 0.00 | 4.04 | 0.00 | 89 | 1012.9 |
| 20260510123029 | 20 | 173 | 0.0 | 0.0 | 0.00 | 4.04 | 0.00 | 89 | 1012.5 |
| 20260510121527 | 20 | 173 | 0.0 | 1.6 | 0.00 | 4.04 | 0.00 | 89 | 1012.4 |
| 20260510120024 | 20 | 163 | 0.0 | 1.6 | 0.00 | 4.04 | 0.00 | 99 | 1012.4 |
| 20260510114522 | 20 | 177 | 0.0 | 4.8 | 0.00 | 4.04 | 0.00 | 99 | 1012.1 |
| 20260510113020 | 20 | 168 | 0.0 | 6.4 | 0.00 | 4.04 | 0.00 | 99 | 1011.6 |
| 20260510111518 | 20 | 175 | 0.0 | 4.8 | 0.00 | 4.04 | 0.00 | 99 | 1011.5 |
| 20260510110018 | 19 | 163 | 0.0 | 0.0 | 0.00 | 4.04 | 0.00 | 99 | 1011.2 |
| 20260510104513 | 19 | 179 | 0.0 | 0.0 | 0.00 | 4.04 | 0.00 | 99 | 1011.0 |
| 20260510103011 | 20 | 179 | 0.0 | 0.0 | 0.00 | 4.04 | 0.00 | 99 | 1010.6 |
| 20260510101509 | -17 | 0.0 | 0.0 | 0.00 | 4.04 | 0.00 | 1010.5 | ||
| 20260510100004 | -17 | 0.0 | 0.0 | 0.00 | 4.04 | 0.00 | 1010.3 | ||
| 20260510094601 | -17 | 0.0 | 0.0 | 0.00 | 4.04 | 0.00 | 1010.3 | ||
| 20260510093057 | -17 | 0.0 | 0.0 | 0.00 | 4.04 | 0.00 | 1010.3 | ||
| 20260510091551 | -17 | 0.0 | 0.0 | 0.00 | 4.04 | 0.00 | 1010.1 | ||
| 20260510090046 | -17 | 0.0 | 0.0 | 0.00 | 4.04 | 0.00 | 1010.0 | ||
| 20260510084551 | 17 | 173 | 0.0 | 0.0 | 0.00 | 4.04 | 0.00 | 89 | 1010.0 |
| 20260510083043 | 17 | 173 | 0.0 | 0.0 | 0.00 | 4.04 | 0.00 | 89 | 1010.1 |
| 20260510081538 | 17 | 173 | 0.0 | 0.0 | 0.00 | 4.04 | 0.00 | 89 | 1009.9 |
| 20260510080037 | 17 | 173 | 0.0 | 0.0 | 0.00 | 4.04 | 0.00 | 89 | 1009.8 |
| 20260510074537 | 17 | 173 | 0.0 | 0.0 | 0.00 | 4.04 | 0.00 | 89 | 1009.8 |
| 20260510073040 | 17 | 173 | 0.0 | 0.0 | 0.00 | 4.04 | 0.00 | 89 | 1009.6 |
| 20260510071542 | 17 | 173 | 0.0 | 0.0 | 0.00 | 4.04 | 0.00 | 89 | 1009.3 |
| 20260510070032 | 18 | 173 | 0.0 | 0.0 | 0.00 | 4.04 | 0.00 | 89 | 1009.6 |
| 20260510064532 | 17 | 173 | 0.0 | 0.0 | 0.00 | 4.04 | 0.00 | 89 | 1009.7 |
| 20260510063031 | 18 | 173 | 0.0 | 0.0 | 0.00 | 4.04 | 0.00 | 89 | 1009.6 |
| 20260510061529 | 18 | 173 | 0.0 | 0.0 | 0.00 | 4.04 | 0.00 | 89 | 1009.6 |
| 20260510060034 | 18 | 173 | 0.0 | 0.0 | 0.00 | 4.04 | 0.00 | 89 | 1009.7 |
| 20260510054528 | 18 | 173 | 0.0 | 0.0 | 0.00 | 4.04 | 0.00 | 89 | 1009.7 |
| 20260510053026 | 18 | 173 | 0.0 | 0.0 | 0.00 | 4.04 | 0.00 | 89 | 1009.5 |
| 20260510051536 | 18 | 173 | 0.0 | 0.0 | 0.00 | 4.04 | 0.00 | 89 | 1009.4 |
| 20260510050022 | 18 | 173 | 0.0 | 0.0 | 0.00 | 4.04 | 0.00 | 89 | 1009.7 |
| 20260510044524 | 18 | 173 | 0.0 | 0.0 | 0.00 | 4.04 | 4.04 | 89 | 1009.6 |
| 20260510043024 | 18 | 173 | 0.0 | 0.0 | 0.00 | 4.04 | 4.04 | 89 | 1010.0 |
| 20260510041520 | 18 | 173 | 0.0 | 0.0 | 0.00 | 4.04 | 4.04 | 89 | 1009.8 |
| 20260510040020 | 18 | 349 | 0.0 | 4.8 | 0.00 | 4.04 | 4.04 | 89 | 1009.7 |
| 20260510034519 | 18 | 52 | 0.0 | 4.8 | 0.00 | 4.04 | 4.04 | 89 | 1010.1 |
| 20260510033021 | 18 | 84 | 0.0 | 3.2 | 0.00 | 4.04 | 4.04 | 89 | 1010.6 |
| 20260510031518 | 18 | 74 | 0.0 | 0.0 | 0.00 | 4.04 | 4.04 | 89 | 1010.5 |
| 20260510030017 | 18 | 74 | 0.0 | 0.0 | 0.00 | 4.04 | 4.04 | 89 | 1010.6 |
| 20260510024519 | 18 | 74 | 0.0 | 1.6 | 0.00 | 4.04 | 4.04 | 89 | 1010.6 |
| 20260510023016 | 18 | 104 | 0.0 | 1.6 | 0.00 | 4.04 | 4.04 | 89 | 1010.2 |
| 20260510021515 | 18 | 185 | 0.0 | 1.6 | 0.00 | 4.04 | 4.04 | 89 | 1010.0 |
| 20260510020015 | 19 | 342 | 0.0 | 0.0 | 0.00 | 4.04 | 4.04 | 89 | 1009.9 |
| 20260510014521 | 19 | 335 | 0.0 | 1.6 | 0.00 | 4.04 | 4.04 | 89 | 1009.7 |
| 20260510013014 | 19 | 347 | 0.0 | 1.6 | 0.03 | 4.04 | 4.04 | 89 | 1009.6 |
| 20260510011514 | 19 | 360 | 0.0 | 1.6 | 0.03 | 4.04 | 4.04 | 89 | 1009.4 |
| 20260510010013 | 19 | 1 | 0.0 | 1.6 | 0.03 | 4.04 | 4.04 | 89 | 1009.4 |
| 20260510004512 | 19 | 156 | 0.0 | 1.6 | 0.03 | 4.04 | 4.04 | 89 | 1009.5 |
| 20260510003011 | 19 | 138 | 0.0 | 0.0 | 0.00 | 4.01 | 4.01 | 89 | 1009.5 |
| 20260510001511 | 19 | 181 | 0.0 | 1.6 | 0.05 | 4.01 | 4.01 | 89 | 1009.6 |
| 20260510000010 | 19 | 177 | 0.0 | 1.6 | 0.05 | 4.01 | 4.01 | 89 | 1009.3 |
| 20260509234510 | 20 | 221 | 0.0 | 1.6 | 0.08 | 4.01 | 4.01 | 89 | 1009.4 |
| 20260509233010 | 20 | 221 | 0.0 | 1.6 | 0.08 | 4.01 | 4.01 | 89 | 1009.4 |
| 20260509231509 | 19 | 221 | 0.0 | 1.6 | 0.03 | 3.96 | 3.96 | 89 | 1009.7 |
| 20260509230008 | 20 | 23 | 0.0 | 3.2 | 0.03 | 3.96 | 3.96 | 89 | 1009.7 |
| 20260509224507 | 20 | 169 | 0.0 | 3.2 | 0.03 | 3.99 | 3.94 | 89 | 1009.4 |
| 20260509223007 | 20 | 136 | 0.0 | 3.2 | 0.03 | 3.99 | 3.94 | 89 | 1009.2 |
| 20260509221521 | 20 | 194 | 0.0 | 0.0 | 0.03 | 3.99 | 3.94 | 89 | 1008.7 |
| 20260509220006 | 20 | 194 | 0.0 | 1.6 | 0.03 | 3.99 | 3.94 | 89 | 1008.7 |
| 20260509214505 | 20 | 211 | 0.0 | 3.2 | 0.00 | 4.39 | 3.91 | 89 | 1008.9 |
| 20260509213006 | 20 | 200 | 0.0 | 4.8 | 0.00 | 4.39 | 3.91 | 89 | 1008.6 |
| 20260509211505 | 20 | 334 | 0.0 | 4.8 | 0.00 | 4.39 | 3.91 | 89 | 1008.6 |
| 20260509210004 | 20 | 201 | 0.0 | 3.2 | 0.05 | 4.39 | 3.91 | 89 | 1008.4 |
| 20260509204604 | 20 | 324 | 0.0 | 1.6 | 0.08 | 5.77 | 3.91 | 89 | 1008.3 |
| 20260509203001 | 20 | 166 | 0.0 | 1.6 | 0.13 | 5.77 | 3.91 | 89 | 1008.7 |
| 20260509201501 | 19 | 166 | 0.0 | 1.6 | 0.15 | 5.77 | 3.91 | 89 | 1009.1 |
| 20260509200107 | 19 | 123 | 0.0 | 1.6 | 0.18 | 5.71 | 3.89 | 89 | 1009.7 |
| 20260509194600 | 19 | 5 | 0.0 | 1.6 | 0.15 | 5.69 | 3.84 | 89 | 1009.7 |
| 20260509193126 | 19 | 233 | 0.0 | 1.6 | 0.13 | 5.64 | 3.78 | 89 | 1009.8 |
| 20260509191614 | 18 | 233 | 0.0 | 1.6 | 0.15 | 5.61 | 3.76 | 89 | 1010.4 |